Regional Weather Roundup
Issued by NWS

Home | Current Version | Previous Version | Graphics & Text | Print | Product List | Glossary On
Versions: 1 2 3 4 5 6 7 8 9 10 11 12 13 14 15 16 17 18 19 20 21 22 23 24 25 26 27 28 29 30 31 32 33 34 35 36 37 38 39 40 41 42 43 44 45 46 47 48 49 50
000
ASUS43 KDTX 240701
RWRMI
MICHIGAN HOURLY REGIONAL WEATHER ROUNDUP
NATIONAL WEATHER SERVICE DETROIT/PONTIAC MI
300 AM EDT SAT SEP 24 2016

NOTE: "FAIR" INDICATES FEW OR NO CLOUDS BELOW 12,000 FEET WITH NO
SIGNIFICANT WEATHER AND/OR OBSTRUCTION TO VISIBILITY.

MIZ047>049-052>055-059>063-066>070-074>076-081>083-240800-
SOUTHEAST LOWER MICHIGAN

CITY           SKY/WX    TMP DP  RH WIND       PRES   REMARKS
ADRIAN         CLOUDY    62  56  80 NE8       30.18S
ALMA           PTCLDY    53  51  91 N8        30.22F
ANN ARBOR      CLOUDY    61  55  81 N7        30.18S
BAD AXE        PTCLDY    47  45  94 CALM      30.23S
CARO           MOCLDY    51  49  90 CALM      30.22S
DETROIT CITY   CLOUDY    61  53  75 NE8       30.19S
DETROIT        CLOUDY    62  55  77 NE7       30.19R
FLINT          PTCLDY    54  50  86 NE5       30.22R
GROSSE ILE     CLOUDY    62  54  76 NE9       30.17S
HILLSDALE      CLOUDY    59  54  82 NE6       30.18S
HOWELL         CLOUDY    58  53  84 NE5       30.20S

CITY           SKY/WX    TMP DP  RH WIND       PRES   REMARKS
JACKSON        CLOUDY    58  54  86 NE6       30.19S
LAMBERTVILLE   CLOUDY    64  57  79 NE5       30.17S
LANSING        CLOUDY    57  49  74 NE7       30.21S
LAPEER         CLOUDY    55  51  85 NE8       30.22R
MASON          CLOUDY    57  52  82 NE5       30.19F
MONROE         CLOUDY    63  58  82 NE8       30.17R
MT. CLEMENS    CLOUDY    60  52  75 NE10      30.18R
PONTIAC        CLOUDY    60  53  77 E8        30.19S
PORT HOPE        N/A     61  49  64 E15       30.21F
PORT HURON     CLOUDY    59  52  77 NE5       30.20F
TRI CITIES     MOCLDY    51  50  96 N5        30.23F
MIDLAND        FAIR      49  48  96 CALM      30.22F
TROY           CLOUDY    62  52  68 NE9       30.21F
SAGINAW HB     MOCLDY    54  48  82 NE6       30.22S
$$
MIZ043>046-050>051-056>058-064>065-071>073-077>080-240800-
SOUTHWEST LOWER MICHIGAN

CITY           SKY/WX    TMP DP  RH WIND       PRES   REMARKS
BATTLE CREEK   CLEAR     57  53  86 NE6       30.19F
BENTON HARBOR  PTCLDY    60  55  83 E8        30.16S
BIG RAPIDS     CLEAR     53  49  85 CALM      30.22F
COLDWATER      CLOUDY    60  54  80 E7        30.18S
FREMONT        FAIR      55  48  75 E7        30.21R
HOLLAND        CLEAR     56  52  86 E8        30.20R
GRAND RAPIDS   CLEAR     55  50  83 E8        30.20F
IONIA          FAIR      54  49  83 NE6       30.20S
KALAMAZOO      CLEAR     58  52  80 VRB5      30.18F
LUDINGTON      CLEAR     52  49  90 E5        30.21S
MARSHALL       MOCLDY    57  55  91 NE3       30.18F
MUSKEGON       CLEAR     57  51  80 E8        30.20S
SOUTH HAVEN    CLEAR     60  55  84 E7        30.17S
$$
MIZ016>042-240800-
NORTHERN LOWER MICHIGAN

CITY           SKY/WX    TMP DP  RH WIND       PRES   REMARKS
ALPENA         PTCLDY    45  42  89 CALM      30.27S
BEAVER ISLAND  PTCLDY    48  47  99 CALM      30.26R
BELLAIRE       PTCLDY    46  45  96 CALM      30.26S FOG
CADILLAC       PTCLDY    48  46  93 E5        30.23S
CHARLEVOIX     PTCLDY    50  47  91 SE3       30.29R
FRANKFORT      PTCLDY    54  48  82 E5        30.23S
GAYLORD        PTCLDY    48  42  80 E3        30.25F
GRAYLING       FOG       42  41  97 CALM      30.26S VSB 1/2
HARBOR SPRINGS PTCLDY    46  45  94 N3        30.26S
HOUGHTON LAKE  CLOUDY    43  42  97 NE5       30.25F
MANISTEE       CLEAR     50  48  93 E3        30.23R
OSCODA         CLOUDY    56  45  65 E7        30.24S
PELLSTON       PTCLDY    41  38  89 CALM      30.28S
ROGERS CITY    MOCLDY    46  43  90 CALM      30.28S
TRAVERSE CITY  PTCLDY    53  48  83 CALM      30.24R
$$
MIZ007>008-015-240800-
EASTERN UPPER MICHIGAN

CITY           SKY/WX    TMP DP  RH WIND       PRES   REMARKS
KINROSS        CLOUDY    49  45  86 E8        30.28S
MACKINAC ISLAN CLOUDY    51  51 100 NE3       30.27S
NEWBERRY       CLOUDY    43  42  97 CALM      30.27R
S. S. MARIE    PTCLDY    49  45  86 E5        30.28S
MUNISING         N/A     46  44  93 SW3       30.26R
$$
MIZ004>006-011>014-085-240800-
CENTRAL UPPER MICHIGAN

CITY           SKY/WX    TMP DP  RH WIND       PRES   REMARKS
MANISTIQUE     PTCLDY    45  42  92 CALM      30.26R
ESCANABA       MOCLDY    53  50  89 CALM      30.25R
MENOMINEE      CLEAR     61  54  77 SE8       30.24R
SAWYER-GWINN   CLOUDY    42  38  86 CALM      30.26S
$$
MIZ001>003-009>011-084-240800-
WESTERN UPPER MICHIGAN

CITY           SKY/WX    TMP DP  RH WIND       PRES   REMARKS
IRON MOUNTAIN  MOCLDY    52  45  77 CALM      30.24S
HOUGHTON       MOCLDY    51  47  86 SE5       30.24S
COPPER HARBOR    N/A     53  47  79 S5        30.25S
IRONWOOD       CLOUDY    57  50  77 VRB5      30.23R
$$

ABBREVIATIONS USED IN REMARKS
   TC - TEMPERATURE IN CELSIUS
  WCI - WIND CHILL INDEX
   HX - HEAT INDEX
  VSB - VISIBILITY





USA.gov is the U.S. government's official web portal to all federal, state and local government web resources and services.